sat.trackr.live / text

‹ back to catalog

GEESAT-6 08

NORAD 65720 · 2025-214J

PAYLOAD ACTIVE UNKNOWN

§ Identity

Operator
Country
PRC
Launch date
2025-09-24
Launch site
YSLA
Launch vehicle
Mass (kg)
RCS (m²)

External: N2YO · Heavens-Above · Gunter

§ Orbital elements

Epoch: 2026-05-25T03:03:13.262112Z

Period
97.08 min
Inclination
49.9922°
Eccentricity
0.0009453
Mean motion
14.83266830 rev/d
Perigee alt
612.4 km
Apogee alt
625.6 km
Semi-major
6,997.2 km
B*
1.8356e-4
RAAN
55.2525°
Arg perigee
124.6508°
Mean anomaly
235.5322°
Rev number
3,608

§ Raw data

GEESAT-6 081 65720U 25214J   26145.12723683  .00001291  00000+0  18356-3 0  99922 65720  49.9922  55.2525 0009453 124.6508 235.5322 14.83266830 36088

JSON: /api/v1/satellites/65720 · /tle

For live sub-satellite position, see the globe view (requires WebGL).

§ Visibility from observer

Set your observer location to see the next 7 days of passes ≥ 10°. The values pass through the URL so the page stays shareable.

No JS? Fill the form by hand. The geolocation button needs JavaScript.